Weather History for Danville, KY

Change the Weather History Date:

Sunday, February 10, 2013

  Actual Average (KLEX) Record (KLEX)
Temperature  
Mean Temperature 44 °F 36 °F  
Max Temperature 57 °F 44 °F 75 °F (1932)
Min Temperature 32 °F 27 °F -17 °F (1899)
Degree Days  
Heating Degree Days 20 29  
Month to date heating degree days 303  
Since 1 July heating degree days 3086  
Cooling Degree Days 0 0  
Month to date cooling degree days 0  
Year to date cooling degree days 0  
Moisture  
Dew Point 34 °F    
Average Humidity 68    
Maximum Humidity 93    
Minimum Humidity 36    
Precipitation  
Precipitation 0.00 in 0.12 in 1.56 in (1960)
Month to date precipitation 1.15  
Year to date precipitation 4.35  
Snow  
Snow 0.00 in 0.20 in 6.10 in (1964)
Month to date snowfall 1.9  
Since 1 July snowfall 8.6  
Snow Depth -    
Sea Level Pressure  
Sea Level Pressure 30.05 in    
Wind  
Wind Speed 8 mph (South)    
Max Wind Speed 23 mph    
Max Gust Speed 31 mph    
Visibility 10 miles    
Events Rain    
T = Trace of Precipitation, MM = Missing Value Source: NWS Daily Summary

Daily Weather History Graph

Daily Weather History Graph

Search for Another Location

Airport:

Trip Planner

Search our weather history database for the weather conditions in past years. The results will help you decide how hot, cold, wet, or windy it might be!

Date:

Astronomy

Feb. 10, 2013 Rise Set
Actual Time 7:33 AM EST 6:13 PM EST
Civil Twilight 7:06 AM EST 6:40 PM EST
Nautical Twilight 6:35 AM EST 7:11 PM EST
Astronomical Twilight 6:05 AM EST 7:41 PM EST
Moon 7:24 AM EST (2/10) 7:01 PM EST (2/10)
Length of Visible Light 11h 33m
Length of Day
10h 39m
New Moon, 0% of the Moon is Illuminated
Feb 10
New Moon
Feb 17
First Quarter
Feb 25
Full
Mar 4
Last Quarter
Mar 11
New

Hourly Weather History & Observations

Time (EST) Temp. Windchill Dew Point Humidity Pressure Visibility Wind Dir Wind Speed Gust Speed Precip Events Conditions
12:15 AM 32.0 °F 27.5 °F 24.8 °F 75% 30.19 in 10.0 mi SE 4.6 mph - N/A   Clear
12:35 AM 33.8 °F 30.8 °F 24.8 °F 70% 30.19 in 10.0 mi SSE 3.5 mph - N/A   Clear
12:55 AM 33.8 °F - 24.8 °F 70% 30.19 in 10.0 mi Calm Calm - N/A   Clear
1:15 AM 33.8 °F 30.8 °F 23.0 °F 65% 30.19 in 10.0 mi SE 3.5 mph - N/A   Clear
1:35 AM 33.8 °F - 24.8 °F 70% 30.19 in 10.0 mi Calm Calm - N/A   Clear
1:55 AM 32.0 °F - 24.8 °F 75% 30.19 in 10.0 mi Calm Calm - N/A   Clear
2:15 AM 32.0 °F 28.7 °F 26.6 °F 80% 30.19 in 10.0 mi SSE 3.5 mph - N/A   Clear
2:35 AM 33.8 °F 30.8 °F 26.6 °F 75% 30.19 in 10.0 mi SE 3.5 mph - N/A   Scattered Clouds
2:55 AM 33.8 °F 27.7 °F 28.4 °F 81% 30.18 in 10.0 mi SSE 6.9 mph - N/A   Scattered Clouds
3:15 AM 35.6 °F 29.9 °F 26.6 °F 70% 30.17 in 10.0 mi South 6.9 mph - N/A   Scattered Clouds
3:35 AM 35.6 °F 31.7 °F 28.4 °F 75% 30.16 in 10.0 mi SSE 4.6 mph - N/A   Mostly Cloudy
3:55 AM 35.6 °F 31.7 °F 28.4 °F 75% 30.15 in 10.0 mi SSE 4.6 mph - N/A   Mostly Cloudy
4:15 AM 35.6 °F 32.8 °F 28.4 °F 75% 30.16 in 10.0 mi SSW 3.5 mph - N/A   Scattered Clouds
4:35 AM 35.6 °F 30.7 °F 26.6 °F 70% 30.16 in 10.0 mi SSW 5.8 mph - N/A   Clear
4:55 AM 37.4 °F 32.8 °F 26.6 °F 65% 30.16 in 10.0 mi SW 5.8 mph - N/A   Clear
5:15 AM 37.4 °F 32.8 °F 26.6 °F 65% 30.16 in 10.0 mi SW 5.8 mph - N/A   Clear
5:35 AM 39.2 °F 35.0 °F 28.4 °F 65% 30.16 in 10.0 mi SSW 5.8 mph - N/A   Clear
5:55 AM 39.2 °F 35.0 °F 28.4 °F 65% 30.16 in 10.0 mi SSW 5.8 mph - N/A   Scattered Clouds
6:15 AM 41.0 °F 37.1 °F 28.4 °F 61% 30.17 in 10.0 mi SW 5.8 mph - N/A   Overcast
6:35 AM 41.0 °F 37.1 °F 28.4 °F 61% 30.16 in 10.0 mi SSW 5.8 mph - N/A   Overcast
6:55 AM 41.0 °F 38.0 °F 28.4 °F 61% 30.16 in 10.0 mi SSW 4.6 mph - N/A   Mostly Cloudy
7:15 AM 41.0 °F 37.1 °F 28.4 °F 61% 30.16 in 10.0 mi South 5.8 mph - N/A   Overcast
7:35 AM 41.0 °F 36.4 °F 30.2 °F 65% 30.14 in 10.0 mi SSE 6.9 mph - N/A   Overcast
7:55 AM 42.8 °F 40.1 °F 28.4 °F 57% 30.17 in 10.0 mi South 4.6 mph - N/A   Overcast
8:15 AM 42.8 °F 40.1 °F 28.4 °F 57% 30.16 in 10.0 mi South 4.6 mph - N/A   Overcast
8:35 AM 41.0 °F 38.0 °F 30.2 °F 65% 30.15 in 10.0 mi SSE 4.6 mph - N/A   Overcast
8:55 AM 42.8 °F 38.6 °F 28.4 °F 57% 30.15 in 10.0 mi SSE 6.9 mph - N/A   Overcast
9:15 AM 44.6 °F 43.1 °F 28.4 °F 53% 30.16 in 10.0 mi SSW 3.5 mph - N/A   Overcast
9:35 AM 44.6 °F 40.2 °F 28.4 °F 53% 30.16 in 10.0 mi South 8.1 mph - N/A   Overcast
9:55 AM 44.6 °F 39.2 °F 28.4 °F 53% 30.14 in 10.0 mi South 10.4 mph - N/A   Overcast
10:15 AM 46.4 °F 41.5 °F 28.4 °F 50% 30.14 in 10.0 mi South 10.4 mph - N/A   Overcast
10:35 AM 48.2 °F - 30.2 °F 50% 30.13 in 10.0 mi South 9.2 mph - N/A   Overcast
10:55 AM 50.0 °F - 30.2 °F 47% 30.12 in 10.0 mi South 10.4 mph 18.4 mph N/A   Overcast
11:15 AM 51.8 °F - 30.2 °F 44% 30.10 in 10.0 mi South 13.8 mph - N/A   Overcast
11:35 AM 53.6 °F - 30.2 °F 41% 30.08 in 10.0 mi South 16.1 mph 26.5 mph N/A   Overcast
11:55 AM 53.6 °F - 28.4 °F 38% 30.08 in 10.0 mi SSW 19.6 mph 28.8 mph N/A   Overcast
12:15 PM 55.4 °F - 30.2 °F 38% 30.07 in 10.0 mi South 12.7 mph 20.7 mph N/A   Overcast
12:35 PM 55.4 °F - 28.4 °F 36% 30.05 in 10.0 mi South 18.4 mph 26.5 mph N/A   Scattered Clouds
12:55 PM 55.4 °F - 30.2 °F 38% 30.03 in 10.0 mi South 18.4 mph 25.3 mph N/A   Scattered Clouds
1:15 PM 55.4 °F - 30.2 °F 38% 30.00 in 10.0 mi South 16.1 mph 28.8 mph N/A   Clear
1:35 PM 55.4 °F - 30.2 °F 38% 29.98 in 10.0 mi South 15.0 mph 23.0 mph N/A   Clear
1:55 PM 57.2 °F - 32.0 °F 38% 29.99 in 10.0 mi SSW 12.7 mph 20.7 mph N/A   Mostly Cloudy
2:15 PM 57.2 °F - 32.0 °F 38% 29.97 in 10.0 mi SSW 23.0 mph 31.1 mph N/A   Mostly Cloudy
2:35 PM 55.4 °F - 32.0 °F 41% 29.98 in 10.0 mi SSW 23.0 mph 27.6 mph N/A   Mostly Cloudy
2:55 PM 55.4 °F - 32.0 °F 41% 29.98 in 10.0 mi SSW 18.4 mph 26.5 mph N/A   Overcast
3:15 PM 55.4 °F - 33.8 °F 44% 29.97 in 10.0 mi SSW 13.8 mph 23.0 mph N/A   Overcast
3:35 PM 55.4 °F - 33.8 °F 44% 29.98 in 10.0 mi SSW 17.3 mph 26.5 mph N/A   Overcast
3:55 PM 51.8 °F - 42.8 °F 71% 30.00 in 7.0 mi SW 15.0 mph 26.5 mph N/A Rain Light Rain
4:15 PM 50.0 °F - 44.6 °F 82% 30.00 in 5.0 mi South 10.4 mph 20.7 mph N/A Rain Rain
4:35 PM 46.4 °F 40.4 °F 42.8 °F 87% 29.97 in 7.0 mi South 13.8 mph 21.9 mph N/A Rain Rain
4:55 PM 46.4 °F 40.7 °F 42.8 °F 87% 29.97 in 10.0 mi South 12.7 mph 23.0 mph N/A Rain Light Rain
5:15 PM 46.4 °F 40.7 °F 42.8 °F 87% 29.95 in 10.0 mi South 12.7 mph 21.9 mph N/A Rain Rain
5:35 PM 44.6 °F 37.8 °F 42.8 °F 93% 29.93 in 7.0 mi South 15.0 mph 23.0 mph N/A Rain Light Rain
5:55 PM 44.6 °F 40.7 °F 42.8 °F 93% 29.95 in 10.0 mi South 6.9 mph - N/A Rain Light Rain
6:15 PM 44.6 °F 38.8 °F 42.8 °F 93% 29.94 in 10.0 mi South 11.5 mph - N/A   Light Drizzle
6:35 PM 46.4 °F 40.7 °F 42.8 °F 87% 29.93 in 10.0 mi South 12.7 mph 19.6 mph N/A   Overcast
6:55 PM 44.6 °F 37.8 °F 42.8 °F 93% 29.93 in 10.0 mi South 15.0 mph 21.9 mph N/A   Overcast
7:15 PM 44.6 °F 38.4 °F 42.8 °F 93% 29.92 in 7.0 mi South 12.7 mph - N/A   Drizzle
7:35 PM 44.6 °F 38.4 °F 42.8 °F 93% 29.92 in 10.0 mi South 12.7 mph - N/A   Overcast
7:55 PM 44.6 °F 39.2 °F 42.8 °F 93% 29.92 in 10.0 mi South 10.4 mph - N/A   Overcast
8:15 PM 46.4 °F 40.7 °F 42.8 °F 87% 29.91 in 10.0 mi South 12.7 mph 18.4 mph N/A   Overcast
8:35 PM 46.4 °F 40.7 °F 42.8 °F 87% 29.89 in 10.0 mi South 12.7 mph 23.0 mph N/A   Mostly Cloudy
8:55 PM 46.4 °F 40.4 °F 44.6 °F 93% 29.88 in 10.0 mi South 13.8 mph 21.9 mph N/A   Overcast
9:15 PM 46.4 °F 40.7 °F 44.6 °F 93% 29.88 in 10.0 mi South 12.7 mph 21.9 mph N/A   Overcast
9:35 PM 48.2 °F - 44.6 °F 87% 29.88 in 10.0 mi South 12.7 mph 19.6 mph N/A   Overcast
9:55 PM 48.2 °F - 44.6 °F 87% 29.88 in 10.0 mi South 11.5 mph - N/A   Overcast
10:15 PM 50.0 °F - 46.4 °F 87% 29.87 in 10.0 mi South 11.5 mph 18.4 mph N/A   Overcast
10:35 PM 50.0 °F - 46.4 °F 87% 29.87 in 10.0 mi SSW 12.7 mph 19.6 mph N/A   Overcast
10:55 PM 50.0 °F - 46.4 °F 87% 29.87 in 10.0 mi SSW 13.8 mph 19.6 mph N/A   Overcast
11:15 PM 50.0 °F - 46.4 °F 87% 29.87 in 10.0 mi SSW 12.7 mph 19.6 mph N/A   Overcast
11:35 PM 50.0 °F - 46.4 °F 87% 29.87 in 10.0 mi SSW 12.7 mph 19.6 mph N/A   Overcast
11:55 PM 51.8 °F - 46.4 °F 82% 29.87 in 10.0 mi SSW 9.2 mph 17.3 mph N/A   Drizzle